contact:dominique.lefevre@mio.osupytheas.fr, maurice.libes@osupytheas.fr, didier.mallarino@osupytheas.fr
Project:EMSO http://www.emso-fr.org/EMSO-France
Depth: 2436.0 m
Title:EMSO Ligure Ouest : Data MII capteur CSTAR
DateTime,Latitude,Longitude,Instrument_Serial,Reference_Counts,Signal_Counts,Corrected_Signal_raw_counts,Calculated_Beam_c_inverse_meters,Internal_thermistor_counts
DateTime,Latitude,Longitude,Instrument_Serial,Reference_Counts,Signal_Counts,Corrected_Signal_raw_counts,Calculated_Beam_c_inverse_meters,Internal_thermistor_counts
2023-09-22T00:00:58,42.805,6.029,CST-1368DR,4160,4542,11577,01.197,553
2023-09-22T00:04:00,42.805,6.029,CST-1368DR,4160,4542,11575,01.198,553
2023-09-22T00:07:01,42.805,6.029,CST-1368DR,4160,4542,11576,01.197,553
2023-09-22T00:10:03,42.805,6.029,CST-1368DR,4160,4541,11572,01.199,553
2023-09-22T00:13:04,42.805,6.029,CST-1368DR,4160,4541,11574,01.198,552
2023-09-22T00:16:06,42.805,6.029,CST-1368DR,4160,4541,11574,01.198,553
2023-09-22T00:19:07,42.805,6.029,CST-1368DR,4160,4542,11575,01.198,553
2023-09-22T00:22:09,42.805,6.029,CST-1368DR,4160,4542,11575,01.198,553
2023-09-22T00:25:11,42.805,6.029,CST-1368DR,4160,4542,11575,01.198,553
2023-09-22T00:28:12,42.805,6.029,CST-1368DR,4160,4542,11577,01.197,552
2023-09-22T00:31:14,42.805,6.029,CST-1368DR,4160,4542,11577,01.197,552
2023-09-22T00:34:15,42.805,6.029,CST-1368DR,4160,4542,11577,01.197,553
2023-09-22T00:37:17,42.805,6.029,CST-1368DR,4160,4542,11576,01.197,553
2023-09-22T00:40:19,42.805,6.029,CST-1368DR,4160,4542,11576,01.197,553
2023-09-22T00:43:20,42.805,6.029,CST-1368DR,4160,4543,11578,01.197,553
2023-09-22T00:46:22,42.805,6.029,CST-1368DR,4160,4542,11576,01.197,553
2023-09-22T00:49:23,42.805,6.029,CST-1368DR,4160,4541,11574,01.198,553
2023-09-22T00:52:25,42.805,6.029,CST-1368DR,4160,4543,11577,01.197,553
2023-09-22T00:55:26,42.805,6.029,CST-1368DR,4160,4542,11577,01.197,553
2023-09-22T00:58:28,42.805,6.029,CST-1368DR,4160,4542,11575,01.198,553
2023-09-22T01:01:30,42.805,6.029,CST-1368DR,4160,4542,11576,01.197,553
2023-09-22T01:04:31,42.805,6.029,CST-1368DR,4160,4543,11577,01.197,553
2023-09-22T01:07:33,42.805,6.029,CST-1368DR,4160,4542,11575,01.198,552
2023-09-22T01:10:34,42.805,6.029,CST-1368DR,4160,4541,11574,01.198,553
2023-09-22T01:13:36,42.805,6.029,CST-1368DR,4160,4542,11575,01.198,553
2023-09-22T01:16:37,42.805,6.029,CST-1368DR,4160,4541,11574,01.198,553
2023-09-22T01:19:39,42.805,6.029,CST-1368DR,4160,4540,11572,01.199,553
2023-09-22T01:22:41,42.805,6.029,CST-1368DR,4160,4542,11576,01.197,553
2023-09-22T01:25:42,42.805,6.029,CST-1368DR,4160,4540,11570,01.200,553
2023-09-22T01:28:44,42.805,6.029,CST-1368DR,4160,4541,11574,01.198,552
2023-09-22T01:31:45,42.805,6.029,CST-1368DR,4160,4542,11577,01.197,553
2023-09-22T01:34:47,42.805,6.029,CST-1368DR,4160,4542,11576,01.197,552
2023-09-22T01:37:49,42.805,6.029,CST-1368DR,4160,4542,11575,01.198,552
2023-09-22T01:40:50,42.805,6.029,CST-1368DR,4160,4542,11577,01.197,552
2023-09-22T01:43:52,42.805,6.029,CST-1368DR,4160,4542,11576,01.197,553
2023-09-22T01:46:53,42.805,6.029,CST-1368DR,4160,4543,11578,01.197,552
2023-09-22T01:49:55,42.805,6.029,CST-1368DR,4160,4542,11577,01.197,552
2023-09-22T01:52:56,42.805,6.029,CST-1368DR,4160,4543,11578,01.197,552
2023-09-22T01:55:58,42.805,6.029,CST-1368DR,4160,4543,11579,01.196,553
2023-09-22T01:59:00,42.805,6.029,CST-1368DR,4160,4540,11570,01.200,553
2023-09-22T02:02:01,42.805,6.029,CST-1368DR,4160,4542,11576,01.197,553
2023-09-22T02:05:03,42.805,6.029,CST-1368DR,4160,4542,11577,01.197,553
2023-09-22T02:08:04,42.805,6.029,CST-1368DR,4160,4543,11577,01.197,552
2023-09-22T02:11:06,42.805,6.029,CST-1368DR,4160,4542,11577,01.197,553
2023-09-22T02:14:08,42.805,6.029,CST-1368DR,4160,4543,11578,01.197,553
2023-09-22T02:17:09,42.805,6.029,CST-1368DR,4160,4542,11577,01.197,553
2023-09-22T02:20:11,42.805,6.029,CST-1368DR,4160,4542,11576,01.197,553
2023-09-22T02:23:12,42.805,6.029,CST-1368DR,4160,4542,11576,01.197,553
2023-09-22T02:26:14,42.805,6.029,CST-1368DR,4160,4543,11578,01.197,553
2023-09-22T02:29:15,42.805,6.029,CST-1368DR,4160,4543,11578,01.197,553
2023-09-22T02:32:17,42.805,6.029,CST-1368DR,4160,4542,11575,01.198,553
2023-09-22T02:35:19,42.805,6.029,CST-1368DR,4160,4542,11575,01.198,553
2023-09-22T02:38:20,42.805,6.029,CST-1368DR,4160,4542,11575,01.198,553
2023-09-22T02:41:22,42.805,6.029,CST-1368DR,4160,4542,11576,01.197,553
2023-09-22T02:44:23,42.805,6.029,CST-1368DR,4160,4542,11576,01.197,553
2023-09-22T02:47:25,42.805,6.029,CST-1368DR,4160,4543,11577,01.197,553
2023-09-22T02:50:26,42.805,6.029,CST-1368DR,4160,4542,11576,01.197,552
2023-09-22T02:53:28,42.805,6.029,CST-1368DR,4160,4542,11575,01.198,552
2023-09-22T02:56:30,42.805,6.029,CST-1368DR,4160,4543,11578,01.197,553
2023-09-22T02:59:31,42.805,6.029,CST-1368DR,4160,4543,11577,01.197,552
2023-09-22T03:02:33,42.805,6.029,CST-1368DR,4160,4542,11576,01.197,553
2023-09-22T03:05:34,42.805,6.029,CST-1368DR,4160,4542,11576,01.197,553
2023-09-22T03:08:36,42.805,6.029,CST-1368DR,4160,4543,11578,01.197,552
2023-09-22T03:11:38,42.805,6.029,CST-1368DR,4160,4542,11577,01.197,552
2023-09-22T03:14:39,42.805,6.029,CST-1368DR,4160,4542,11576,01.197,553
2023-09-22T03:17:41,42.805,6.029,CST-1368DR,4160,4543,11577,01.197,552
2023-09-22T03:20:42,42.805,6.029,CST-1368DR,4160,4542,11576,01.197,553
2023-09-22T03:23:44,42.805,6.029,CST-1368DR,4160,4542,11576,01.197,553
2023-09-22T03:26:45,42.805,6.029,CST-1368DR,4160,4542,11576,01.197,552
2023-09-22T03:29:47,42.805,6.029,CST-1368DR,4160,4542,11577,01.197,553
2023-09-22T03:32:49,42.805,6.029,CST-1368DR,4160,4542,11575,01.198,553
2023-09-22T03:35:50,42.805,6.029,CST-1368DR,4160,4542,11575,01.198,553
2023-09-22T03:38:52,42.805,6.029,CST-1368DR,4160,4543,11577,01.197,553
2023-09-22T03:41:53,42.805,6.029,CST-1368DR,4160,4542,11576,01.197,553
2023-09-22T03:44:55,42.805,6.029,CST-1368DR,4160,4541,11574,01.198,553
2023-09-22T03:47:56,42.805,6.029,CST-1368DR,4160,4542,11576,01.197,553
2023-09-22T03:50:58,42.805,6.029,CST-1368DR,4160,4543,11578,01.197,553
2023-09-22T03:54:00,42.805,6.029,CST-1368DR,4160,4542,11575,01.198,552
2023-09-22T03:57:01,42.805,6.029,CST-1368DR,4160,4542,11576,01.197,553
2023-09-22T04:00:03,42.805,6.029,CST-1368DR,4160,4542,11576,01.197,553
2023-09-22T04:03:04,42.805,6.029,CST-1368DR,4160,4542,11577,01.197,553
2023-09-22T04:06:06,42.805,6.029,CST-1368DR,4160,4542,11576,01.197,553
2023-09-22T04:09:08,42.805,6.029,CST-1368DR,4160,4543,11577,01.197,553
2023-09-22T04:12:09,42.805,6.029,CST-1368DR,4160,4542,11577,01.197,553
2023-09-22T04:15:11,42.805,6.029,CST-1368DR,4160,4540,11572,01.199,553
2023-09-22T04:18:12,42.805,6.029,CST-1368DR,4160,4542,11577,01.197,553
2023-09-22T04:21:14,42.805,6.029,CST-1368DR,4160,4543,11578,01.197,553
2023-09-22T04:24:15,42.805,6.029,CST-1368DR,4160,4542,11576,01.197,553
2023-09-22T04:27:17,42.805,6.029,CST-1368DR,4160,4542,11577,01.197,553
2023-09-22T04:30:21,42.805,6.029,CST-1368DR,4160,4542,11576,01.197,553
2023-09-22T04:33:22,42.805,6.029,CST-1368DR,4160,4541,11574,01.198,553
2023-09-22T04:36:24,42.805,6.029,CST-1368DR,4160,4541,11574,01.198,553
2023-09-22T04:39:25,42.805,6.029,CST-1368DR,4160,4542,11575,01.198,553
2023-09-22T04:42:27,42.805,6.029,CST-1368DR,4160,4542,11576,01.197,553
2023-09-22T04:45:28,42.805,6.029,CST-1368DR,4160,4542,11575,01.198,553
2023-09-22T04:48:30,42.805,6.029,CST-1368DR,4160,4542,11576,01.197,553
2023-09-22T04:51:32,42.805,6.029,CST-1368DR,4160,4543,11577,01.197,553
2023-09-22T04:54:33,42.805,6.029,CST-1368DR,4160,4542,11576,01.197,552
2023-09-22T04:57:35,42.805,6.029,CST-1368DR,4160,4541,11574,01.198,553
2023-09-22T05:00:36,42.805,6.029,CST-1368DR,4160,4543,11577,01.197,553
2023-09-22T05:03:38,42.805,6.029,CST-1368DR,4160,4543,11578,01.197,553
2023-09-22T05:06:39,42.805,6.029,CST-1368DR,4160,4542,11577,01.197,553
2023-09-22T05:09:41,42.805,6.029,CST-1368DR,4160,4543,11578,01.197,552
2023-09-22T05:12:43,42.805,6.029,CST-1368DR,4160,4543,11578,01.197,553
2023-09-22T05:15:44,42.805,6.029,CST-1368DR,4160,4543,11577,01.197,553
2023-09-22T05:18:46,42.805,6.029,CST-1368DR,4160,4542,11577,01.197,553
2023-09-22T05:21:47,42.805,6.029,CST-1368DR,4160,4543,11577,01.197,552
2023-09-22T05:24:49,42.805,6.029,CST-1368DR,4160,4543,11577,01.197,553
2023-09-22T05:27:51,42.805,6.029,CST-1368DR,4160,4543,11578,01.197,553
2023-09-22T05:30:52,42.805,6.029,CST-1368DR,4160,4542,11577,01.197,553
2023-09-22T05:33:54,42.805,6.029,CST-1368DR,4160,4543,11577,01.197,552
2023-09-22T05:36:55,42.805,6.029,CST-1368DR,4160,4543,11577,01.197,553
2023-09-22T05:39:57,42.805,6.029,CST-1368DR,4160,4542,11577,01.197,553
2023-09-22T05:42:58,42.805,6.029,CST-1368DR,4160,4542,11576,01.197,553
2023-09-22T05:46:00,42.805,6.029,CST-1368DR,4160,4543,11578,01.197,553
2023-09-22T05:49:02,42.805,6.029,CST-1368DR,4159,4541,11576,01.197,552
2023-09-22T05:52:03,42.805,6.029,CST-1368DR,4160,4542,11576,01.197,552
2023-09-22T05:55:05,42.805,6.029,CST-1368DR,4160,4543,11577,01.197,553
2023-09-22T05:58:06,42.805,6.029,CST-1368DR,4160,4542,11577,01.197,553
2023-09-22T06:01:08,42.805,6.029,CST-1368DR,4160,4542,11576,01.197,552
2023-09-22T06:04:09,42.805,6.029,CST-1368DR,4160,4542,11577,01.197,552
2023-09-22T06:07:11,42.805,6.029,CST-1368DR,4159,4543,11581,01.196,553
2023-09-22T06:10:13,42.805,6.029,CST-1368DR,4160,4541,11574,01.198,552
2023-09-22T06:13:14,42.805,6.029,CST-1368DR,4160,4542,11576,01.197,553
2023-09-22T06:16:16,42.805,6.029,CST-1368DR,4160,4542,11577,01.197,553
2023-09-22T06:19:17,42.805,6.029,CST-1368DR,4160,4542,11577,01.197,553
2023-09-22T06:22:19,42.805,6.029,CST-1368DR,4160,4542,11577,01.197,553
2023-09-22T06:25:20,42.805,6.029,CST-1368DR,4160,4542,11577,01.197,553
2023-09-22T06:28:22,42.805,6.029,CST-1368DR,4159,4542,11579,01.196,553
2023-09-22T06:31:24,42.805,6.029,CST-1368DR,4159,4542,11578,01.197,553
2023-09-22T06:34:25,42.805,6.029,CST-1368DR,4160,4541,11574,01.198,552
2023-09-22T06:37:27,42.805,6.029,CST-1368DR,4159,4542,11578,01.197,553
2023-09-22T06:40:28,42.805,6.029,CST-1368DR,4159,4542,11579,01.196,553
2023-09-22T06:43:30,42.805,6.029,CST-1368DR,4159,4543,11580,01.196,553
2023-09-22T06:46:32,42.805,6.029,CST-1368DR,4159,4542,11578,01.197,553
2023-09-22T06:49:33,42.805,6.029,CST-1368DR,4160,4542,11575,01.198,552
2023-09-22T06:52:35,42.805,6.029,CST-1368DR,4159,4543,11581,01.196,552
2023-09-22T06:55:36,42.805,6.029,CST-1368DR,4159,4543,11580,01.196,552
2023-09-22T06:58:38,42.805,6.029,CST-1368DR,4159,4542,11578,01.197,553
2023-09-22T07:01:39,42.805,6.029,CST-1368DR,4159,4542,11579,01.196,553
2023-09-22T07:04:41,42.805,6.029,CST-1368DR,4159,4542,11578,01.197,553
2023-09-22T07:07:43,42.805,6.029,CST-1368DR,4159,4542,11578,01.197,553
2023-09-22T07:10:44,42.805,6.029,CST-1368DR,4159,4541,11577,01.197,553
2023-09-22T07:13:46,42.805,6.029,CST-1368DR,4159,4542,11579,01.196,553
2023-09-22T07:16:47,42.805,6.029,CST-1368DR,4159,4542,11579,01.196,553
2023-09-22T07:19:49,42.805,6.029,CST-1368DR,4159,4541,11576,01.197,552
2023-09-22T07:22:51,42.805,6.029,CST-1368DR,4159,4541,11577,01.197,553
2023-09-22T07:25:52,42.805,6.029,CST-1368DR,4159,4542,11578,01.197,553
2023-09-22T07:28:54,42.805,6.029,CST-1368DR,4159,4542,11578,01.197,553
2023-09-22T07:31:55,42.805,6.029,CST-1368DR,4159,4541,11576,01.197,553
2023-09-22T07:34:57,42.805,6.029,CST-1368DR,4159,4542,11579,01.196,553
2023-09-22T07:37:58,42.805,6.029,CST-1368DR,4159,4542,11579,01.196,553
2023-09-22T07:41:00,42.805,6.029,CST-1368DR,4159,4541,11576,01.197,553
2023-09-22T07:44:02,42.805,6.029,CST-1368DR,4159,4541,11577,01.197,552
2023-09-22T07:47:03,42.805,6.029,CST-1368DR,4159,4542,11578,01.197,553
2023-09-22T07:50:05,42.805,6.029,CST-1368DR,4159,4541,11577,01.197,553
2023-09-22T07:53:06,42.805,6.029,CST-1368DR,4159,4541,11576,01.197,553
2023-09-22T07:56:08,42.805,6.029,CST-1368DR,4159,4541,11576,01.197,552
2023-09-22T07:59:09,42.805,6.029,CST-1368DR,4159,4541,11575,01.198,553
2023-09-22T08:02:11,42.805,6.029,CST-1368DR,4159,4541,11576,01.197,552
2023-09-22T08:05:13,42.805,6.029,CST-1368DR,4159,4541,11577,01.197,553
2023-09-22T08:08:14,42.805,6.029,CST-1368DR,4159,4541,11576,01.197,552
2023-09-22T08:11:16,42.805,6.029,CST-1368DR,4159,4541,11576,01.197,553
2023-09-22T08:14:17,42.805,6.029,CST-1368DR,4159,4541,11576,01.197,553
2023-09-22T08:17:19,42.805,6.029,CST-1368DR,4159,4541,11576,01.197,552
2023-09-22T08:20:21,42.805,6.029,CST-1368DR,4159,4541,11576,01.197,553
2023-09-22T08:23:22,42.805,6.029,CST-1368DR,4159,4541,11576,01.197,553
2023-09-22T08:26:24,42.805,6.029,CST-1368DR,4159,4541,11576,01.197,553
2023-09-22T08:29:25,42.805,6.029,CST-1368DR,4159,4540,11574,01.198,552
2023-09-22T08:32:27,42.805,6.029,CST-1368DR,4159,4540,11572,01.199,553
2023-09-22T08:35:28,42.805,6.029,CST-1368DR,4159,4540,11574,01.198,552
2023-09-22T08:38:30,42.805,6.029,CST-1368DR,4159,4541,11575,01.198,553
2023-09-22T08:41:32,42.805,6.029,CST-1368DR,4159,4540,11574,01.198,552
2023-09-22T08:44:33,42.805,6.029,CST-1368DR,4159,4541,11575,01.198,553
2023-09-22T08:47:35,42.805,6.029,CST-1368DR,4159,4540,11573,01.198,552
2023-09-22T08:50:36,42.805,6.029,CST-1368DR,4159,4540,11572,01.199,552
2023-09-22T08:53:38,42.805,6.029,CST-1368DR,4159,4540,11574,01.198,553
2023-09-22T08:56:40,42.805,6.029,CST-1368DR,4159,4540,11572,01.199,553
2023-09-22T08:59:41,42.805,6.029,CST-1368DR,4159,4539,11570,01.200,553
2023-09-22T09:02:43,42.805,6.029,CST-1368DR,4159,4536,11564,01.202,553
2023-09-22T09:05:44,42.805,6.029,CST-1368DR,4159,4538,11569,01.200,553
2023-09-22T09:08:46,42.805,6.029,CST-1368DR,4159,4536,11563,01.202,552
2023-09-22T09:11:47,42.805,6.029,CST-1368DR,4159,4536,11563,01.202,553
2023-09-22T09:14:49,42.805,6.029,CST-1368DR,4159,4536,11564,01.202,553
2023-09-22T09:17:51,42.805,6.029,CST-1368DR,4159,4536,11564,01.202,552
2023-09-22T09:20:52,42.805,6.029,CST-1368DR,4159,4534,11557,01.204,552
2023-09-22T09:23:54,42.805,6.029,CST-1368DR,4159,4535,11560,01.203,553
2023-09-22T09:26:55,42.805,6.029,CST-1368DR,4159,4535,11561,01.203,553
2023-09-22T09:29:57,42.805,6.029,CST-1368DR,4159,4535,11560,01.203,553
2023-09-22T09:32:58,42.805,6.029,CST-1368DR,4159,4533,11556,01.204,552
2023-09-22T09:36:00,42.805,6.029,CST-1368DR,4159,4534,11559,01.203,553
2023-09-22T09:39:02,42.805,6.029,CST-1368DR,4159,4535,11561,01.203,553
2023-09-22T09:42:03,42.805,6.029,CST-1368DR,4159,4534,11558,01.204,553
2023-09-22T09:45:05,42.805,6.029,CST-1368DR,4159,4531,11551,01.206,553
2023-09-22T09:48:06,42.805,6.029,CST-1368DR,4159,4534,11558,01.204,553
2023-09-22T09:51:08,42.805,6.029,CST-1368DR,4159,4535,11560,01.203,552
2023-09-22T09:54:10,42.805,6.029,CST-1368DR,4159,4534,11558,01.204,553
2023-09-22T09:57:11,42.805,6.029,CST-1368DR,4159,4534,11558,01.204,553
2023-09-22T10:00:13,42.805,6.029,CST-1368DR,4159,4534,11557,01.204,553
2023-09-22T10:03:14,42.805,6.029,CST-1368DR,4159,4534,11558,01.204,552
2023-09-22T10:06:16,42.805,6.029,CST-1368DR,4159,4533,11555,01.205,552
2023-09-22T10:09:17,42.805,6.029,CST-1368DR,4159,4533,11557,01.204,552
2023-09-22T10:12:19,42.805,6.029,CST-1368DR,4159,4534,11558,01.204,553
2023-09-22T10:15:21,42.805,6.029,CST-1368DR,4159,4532,11554,01.205,553
2023-09-22T10:18:22,42.805,6.029,CST-1368DR,4159,4533,11557,01.204,553
2023-09-22T10:21:24,42.805,6.029,CST-1368DR,4159,4533,11556,01.204,553
2023-09-22T10:24:25,42.805,6.029,CST-1368DR,4159,4534,11557,01.204,553
2023-09-22T10:27:27,42.805,6.029,CST-1368DR,4159,4534,11557,01.204,552
2023-09-22T10:30:28,42.805,6.029,CST-1368DR,4159,4533,11555,01.205,552
2023-09-22T10:33:30,42.805,6.029,CST-1368DR,4159,4534,11557,01.204,552
2023-09-22T10:36:32,42.805,6.029,CST-1368DR,4159,4534,11558,01.204,553
2023-09-22T10:39:33,42.805,6.029,CST-1368DR,4159,4533,11555,01.205,552
2023-09-22T10:42:35,42.805,6.029,CST-1368DR,4159,4533,11555,01.205,553
2023-09-22T10:45:36,42.805,6.029,CST-1368DR,4159,4534,11557,01.204,553
2023-09-22T10:48:38,42.805,6.029,CST-1368DR,4159,4533,11557,01.204,553
2023-09-22T10:51:40,42.805,6.029,CST-1368DR,4159,4532,11553,01.205,553
2023-09-22T10:54:41,42.805,6.029,CST-1368DR,4159,4532,11553,01.205,553
2023-09-22T10:57:43,42.805,6.029,CST-1368DR,4159,4532,11553,01.205,553
2023-09-22T11:00:44,42.805,6.029,CST-1368DR,4159,4532,11554,01.205,553
2023-09-22T11:03:46,42.805,6.029,CST-1368DR,4159,4532,11553,01.205,553
2023-09-22T11:06:47,42.805,6.029,CST-1368DR,4159,4532,11553,01.205,553
2023-09-22T11:09:49,42.805,6.029,CST-1368DR,4159,4533,11557,01.204,552
2023-09-22T11:12:51,42.805,6.029,CST-1368DR,4159,4532,11553,01.205,553
2023-09-22T11:15:52,42.805,6.029,CST-1368DR,4159,4531,11551,01.206,552
2023-09-22T11:18:54,42.805,6.029,CST-1368DR,4159,4533,11555,01.205,553
2023-09-22T11:21:55,42.805,6.029,CST-1368DR,4159,4533,11556,01.204,552
2023-09-22T11:24:57,42.805,6.029,CST-1368DR,4159,4532,11552,01.206,552
2023-09-22T11:27:59,42.805,6.029,CST-1368DR,4159,4531,11551,01.206,553
2023-09-22T11:31:00,42.805,6.029,CST-1368DR,4159,4532,11553,01.205,552
2023-09-22T11:34:02,42.805,6.029,CST-1368DR,4159,4532,11553,01.205,552
2023-09-22T11:37:03,42.805,6.029,CST-1368DR,4159,4531,11551,01.206,552
2023-09-22T11:40:05,42.805,6.029,CST-1368DR,4159,4531,11551,01.206,553
2023-09-22T11:43:06,42.805,6.029,CST-1368DR,4159,4532,11552,01.206,553
2023-09-22T11:46:08,42.805,6.029,CST-1368DR,4159,4531,11551,01.206,553
2023-09-22T11:49:10,42.805,6.029,CST-1368DR,4159,4532,11553,01.205,553
2023-09-22T11:52:11,42.805,6.029,CST-1368DR,4159,4530,11548,01.207,553
2023-09-22T11:55:13,42.805,6.029,CST-1368DR,4159,4533,11556,01.204,553
2023-09-22T11:58:14,42.805,6.029,CST-1368DR,4159,4532,11552,01.206,552
2023-09-22T12:01:16,42.805,6.029,CST-1368DR,4159,4532,11552,01.206,553
2023-09-22T12:04:17,42.805,6.029,CST-1368DR,4159,4532,11553,01.205,552
2023-09-22T12:07:19,42.805,6.029,CST-1368DR,4159,4532,11552,01.206,552
2023-09-22T12:10:21,42.805,6.029,CST-1368DR,4159,4532,11552,01.206,553
2023-09-22T12:13:22,42.805,6.029,CST-1368DR,4159,4531,11551,01.206,553
2023-09-22T12:16:24,42.805,6.029,CST-1368DR,4159,4531,11550,01.206,552
2023-09-22T12:19:25,42.805,6.029,CST-1368DR,4159,4532,11552,01.206,553
2023-09-22T12:22:27,42.805,6.029,CST-1368DR,4159,4531,11550,01.206,553
2023-09-22T12:25:28,42.805,6.029,CST-1368DR,4159,4531,11551,01.206,553
2023-09-22T12:28:30,42.805,6.029,CST-1368DR,4159,4531,11551,01.206,553
2023-09-22T12:31:34,42.805,6.029,CST-1368DR,4159,4532,11553,01.205,553
2023-09-22T12:34:35,42.805,6.029,CST-1368DR,4159,4530,11548,01.207,553
2023-09-22T12:37:37,42.805,6.029,CST-1368DR,4159,4531,11551,01.206,552
2023-09-22T12:40:39,42.805,6.029,CST-1368DR,4159,4533,11555,01.205,553
2023-09-22T12:43:40,42.805,6.029,CST-1368DR,4159,4532,11552,01.206,553
2023-09-22T12:46:42,42.805,6.029,CST-1368DR,4159,4531,11551,01.206,553
2023-09-22T12:49:43,42.805,6.029,CST-1368DR,4159,4531,11550,01.206,552
2023-09-22T12:52:45,42.805,6.029,CST-1368DR,4159,4531,11551,01.206,552
2023-09-22T12:55:46,42.805,6.029,CST-1368DR,4159,4531,11551,01.206,553
2023-09-22T12:58:48,42.805,6.029,CST-1368DR,4159,4532,11554,01.205,552
2023-09-22T13:01:50,42.805,6.029,CST-1368DR,4159,4531,11551,01.206,553
2023-09-22T13:04:51,42.805,6.029,CST-1368DR,4159,4532,11552,01.206,552
2023-09-22T13:07:53,42.805,6.029,CST-1368DR,4159,4530,11549,01.207,553
2023-09-22T13:10:54,42.805,6.029,CST-1368DR,4159,4531,11551,01.206,553
2023-09-22T13:13:56,42.805,6.029,CST-1368DR,4159,4532,11553,01.205,553
2023-09-22T13:16:58,42.805,6.029,CST-1368DR,4159,4532,11552,01.206,552
2023-09-22T13:19:59,42.805,6.029,CST-1368DR,4159,4530,11548,01.207,553
2023-09-22T13:23:01,42.805,6.029,CST-1368DR,4159,4539,11572,01.199,553
2023-09-22T13:26:02,42.805,6.029,CST-1368DR,4159,4538,11569,01.200,552
2023-09-22T13:29:04,42.805,6.029,CST-1368DR,4159,4539,11571,01.199,553
2023-09-22T13:32:05,42.805,6.029,CST-1368DR,4159,4537,11566,01.201,553
2023-09-22T13:35:07,42.805,6.029,CST-1368DR,4159,4537,11565,01.201,553
2023-09-22T13:38:09,42.805,6.029,CST-1368DR,4159,4536,11564,01.202,553
2023-09-22T13:41:10,42.805,6.029,CST-1368DR,4159,4537,11565,01.201,552
2023-09-22T13:44:12,42.805,6.029,CST-1368DR,4159,4538,11569,01.200,552
2023-09-22T13:47:13,42.805,6.029,CST-1368DR,4159,4537,11565,01.201,553
2023-09-22T13:50:15,42.805,6.029,CST-1368DR,4159,4534,11557,01.204,552
2023-09-22T13:53:16,42.805,6.029,CST-1368DR,4159,4534,11558,01.204,553
2023-09-22T13:56:18,42.805,6.029,CST-1368DR,4159,4533,11556,01.204,553
2023-09-22T13:59:20,42.805,6.029,CST-1368DR,4159,4533,11556,01.204,553
2023-09-22T14:02:21,42.805,6.029,CST-1368DR,4159,4532,11552,01.206,553
2023-09-22T14:05:23,42.805,6.029,CST-1368DR,4159,4533,11556,01.204,553
2023-09-22T14:08:24,42.805,6.029,CST-1368DR,4159,4532,11552,01.206,553
2023-09-22T14:11:26,42.805,6.029,CST-1368DR,4159,4533,11555,01.205,552
2023-09-22T14:14:28,42.805,6.029,CST-1368DR,4159,4532,11553,01.205,553
2023-09-22T14:17:29,42.805,6.029,CST-1368DR,4159,4532,11554,01.205,553
2023-09-22T14:20:31,42.805,6.029,CST-1368DR,4159,4532,11554,01.205,553
2023-09-22T14:23:32,42.805,6.029,CST-1368DR,4159,4531,11551,01.206,553
2023-09-22T14:26:34,42.805,6.029,CST-1368DR,4159,4532,11553,01.205,552
2023-09-22T14:29:35,42.805,6.029,CST-1368DR,4159,4533,11555,01.205,553
2023-09-22T14:32:37,42.805,6.029,CST-1368DR,4159,4533,11555,01.205,551
2023-09-22T14:35:39,42.805,6.029,CST-1368DR,4159,4531,11550,01.206,553
2023-09-22T14:38:40,42.805,6.029,CST-1368DR,4159,4532,11553,01.205,553
2023-09-22T14:41:42,42.805,6.029,CST-1368DR,4159,4530,11549,01.207,552
2023-09-22T14:44:43,42.805,6.029,CST-1368DR,4159,4532,11554,01.205,552
2023-09-22T14:47:45,42.805,6.029,CST-1368DR,4159,4532,11553,01.205,553
2023-09-22T14:50:47,42.805,6.029,CST-1368DR,4159,4533,11555,01.205,553
2023-09-22T14:53:48,42.805,6.029,CST-1368DR,4159,4532,11554,01.205,553
2023-09-22T14:56:50,42.805,6.029,CST-1368DR,4159,4532,11552,01.206,553
2023-09-22T14:59:51,42.805,6.029,CST-1368DR,4159,4531,11550,01.206,553
2023-09-22T15:02:53,42.805,6.029,CST-1368DR,4159,4532,11554,01.205,552
2023-09-22T15:05:55,42.805,6.029,CST-1368DR,4159,4532,11553,01.205,553
2023-09-22T15:08:56,42.805,6.029,CST-1368DR,4159,4532,11553,01.205,553
2023-09-22T15:11:58,42.805,6.029,CST-1368DR,4159,4531,11551,01.206,553
2023-09-22T15:14:59,42.805,6.029,CST-1368DR,4159,4531,11550,01.206,553
2023-09-22T15:18:01,42.805,6.029,CST-1368DR,4159,4532,11552,01.206,553
2023-09-22T15:21:02,42.805,6.029,CST-1368DR,4159,4531,11551,01.206,553
2023-09-22T15:24:04,42.805,6.029,CST-1368DR,4159,4531,11550,01.206,553
2023-09-22T15:27:06,42.805,6.029,CST-1368DR,4159,4531,11551,01.206,552
2023-09-22T15:30:07,42.805,6.029,CST-1368DR,4159,4532,11553,01.205,552
2023-09-22T15:33:09,42.805,6.029,CST-1368DR,4159,4530,11549,01.207,553
2023-09-22T15:36:10,42.805,6.029,CST-1368DR,4159,4532,11552,01.206,552
2023-09-22T15:39:12,42.805,6.029,CST-1368DR,4159,4531,11550,01.206,553
2023-09-22T15:42:14,42.805,6.029,CST-1368DR,4159,4531,11551,01.206,553
2023-09-22T15:45:15,42.805,6.029,CST-1368DR,4159,4532,11552,01.206,552
2023-09-22T15:48:17,42.805,6.029,CST-1368DR,4159,4532,11552,01.206,552
2023-09-22T15:51:18,42.805,6.029,CST-1368DR,4159,4531,11551,01.206,552
2023-09-22T15:54:20,42.805,6.029,CST-1368DR,4159,4532,11552,01.206,553
2023-09-22T15:57:21,42.805,6.029,CST-1368DR,4159,4531,11550,01.206,553
2023-09-22T16:00:23,42.805,6.029,CST-1368DR,4159,4530,11549,01.207,553
2023-09-22T16:03:25,42.805,6.029,CST-1368DR,4159,4531,11551,01.206,553
2023-09-22T16:06:26,42.805,6.029,CST-1368DR,4159,4532,11553,01.205,553
2023-09-22T16:09:28,42.805,6.029,CST-1368DR,4159,4531,11550,01.206,553
2023-09-22T16:12:29,42.805,6.029,CST-1368DR,4159,4531,11551,01.206,552
2023-09-22T16:15:31,42.805,6.029,CST-1368DR,4159,4531,11551,01.206,553
2023-09-22T16:18:32,42.805,6.029,CST-1368DR,4159,4531,11551,01.206,553
2023-09-22T16:21:34,42.805,6.029,CST-1368DR,4159,4531,11551,01.206,552
2023-09-22T16:24:36,42.805,6.029,CST-1368DR,4159,4531,11550,01.206,552
2023-09-22T16:27:37,42.805,6.029,CST-1368DR,4159,4531,11550,01.206,552
2023-09-22T16:30:40,42.805,6.029,CST-1368DR,4159,4531,11550,01.206,553
2023-09-22T16:33:42,42.805,6.029,CST-1368DR,4159,4531,11550,01.206,553
2023-09-22T16:36:43,42.805,6.029,CST-1368DR,4159,4531,11550,01.206,553